Location: Melita
(38.4566°N, 122.6369°W)
Time: 09:14:47
(UTC+00:00)

NOSS 3-2 (A) - Pass Details

Date: 24 January 2020
Orbit: 810 x 1398 km, 63.4° (Epoch: 10 February)

Event Time Altitude Azimuth Distance (km) Brightness Sun altitude
Exits shadow 13:53:35 20° 309° (NW) 2,576 5.2 -17.3°
Maximum altitude 13:58:59 49° 245° (WSW) 1,673 4.4 -16.3°
Drops below altitude 10° 14:07:04 10° 174° (S) 3,455 6.6 -14.8°
Sets 14:10:08 0° 169° (S) 4,440 7.3 -14.2°
